Погода в Плишкарях

Россия / Пермский край     57°00′05″N   55°04′14″E
темп.,
°C
ветер,
м/с
пор.,
м/с
влажн.,
%
обл.,
%
осадки,
мм/ч
давл.,
гПа
погр.,
м
24 мая, вт
вт2423:00+3ю338077 0.1 100128
02:00+3ю3384100 0.0 100242
05:00+3ю228584 0.0 100323
08:00+6ююз477799 0.0 1004768
11:00+7ююз478099 0.3 1005981
14:00+11юз585184 0.3 10062032
17:00+12ююз5745100 0.3 10072050
20:00+10ю3864100 0.0 1008260
25 мая, ср
ср2523:00+6ююв1176100 0.0 100910
02:00+6в2275100 0.0 100913
05:00+6в3687100 0.0 1008139
08:00+8ссв2386100 0.1 1007229
11:00+10св3480100 0.3 1006561
14:00+12св337095 0.2 1006913
17:00+11всв4476100 0.5 1006696
20:00+10в2383100 0.1 1005356
26 мая, чт
чт2623:00+7ююв229542 0.1 100624
02:00+8юз4797100 0.8 1006377
05:00+6юз259766 0.9 1006199
08:00+6юз359375 0.3 1007437
11:00+7з577893 0.8 10081040
14:00+10зюз785995 0.4 10091764
17:00+10зюз6862100 0.4 10111791
20:00+9зюз697342 0.3 1011629
27 мая, пт
пт2723:00+5ююз4109285 0.5 1012223
02:00+5ююз4119472 0.0 1012279
05:00+5ю41087100 0.0 1011310
08:00+7ю6118097 0.0 1010447
11:00+12ю91465100 0.0 10091133
14:00+13ю91367100 0.0 10091289
17:00+12ю91571100 0.0 10081155
20:00+11ю81788100 0.8 10071177
28 мая, сб
сб2823:00+10ю81494100 2.2 1006928
02:00+10ю71396100 0.3 1006533
05:00+10ю51096100 2.3 1006629
08:00+11юз689365 0.3 1008538
11:00+11юз6889100 0.4 1010797
14:00+16зюз795894 0.0 10111696
17:00+17ююз695937 0.1 10111816
20:00+16ю71270100 0.0 1010753